Time,TemperatureF,DewpointF,PressureIn,WindDirection,WindDirectionDegrees,WindSpeedMPH,WindSpeedGustMPH,Humidity,HourlyPrecipIn,Conditions,Clouds,dailyrainin,SoftwareType,DateUTC
2013-02-15 00:05:00,41.5,38.5,29.85,WNW,293,0.0,0.0,89,0.00,,,0.00,HomebrewedOnLinux,2013-02-15 05:05:00,
2013-02-15 00:10:00,41.5,38.5,29.85,West,260,0.0,0.0,89,0.00,,,0.00,HomebrewedOnLinux,2013-02-15 05:10:00,
2013-02-15 00:15:00,41.5,38.5,29.85,SE,134,0.0,0.0,89,0.00,,,0.00,HomebrewedOnLinux,2013-02-15 05:15:00,
2013-02-15 00:20:00,41.4,38.4,29.85,SE,141,0.0,0.0,89,0.00,,,0.00,HomebrewedOnLinux,2013-02-15 05:20:00,
2013-02-15 00:25:00,41.2,38.2,29.85,NNW,344,0.0,0.0,89,0.00,,,0.00,HomebrewedOnLinux,2013-02-15 05:25:00,
2013-02-15 00:30:00,41.2,38.2,29.85,North,350,0.0,0.0,89,0.00,,,0.00,HomebrewedOnLinux,2013-02-15 05:30:00,
2013-02-15 00:35:00,41.2,38.2,29.85,ESE,106,0.0,0.0,89,0.00,,,0.00,HomebrewedOnLinux,2013-02-15 05:35:00,
2013-02-15 00:40:00,41.0,38.0,29.85,ENE,63,0.0,0.0,89,0.00,,,0.00,HomebrewedOnLinux,2013-02-15 05:40:00,
2013-02-15 00:45:00,40.6,37.7,29.85,North,2,0.0,0.0,89,0.00,,,0.00,HomebrewedOnLinux,2013-02-15 05:45:00,
2013-02-15 00:50:00,40.8,38.1,29.85,ESE,107,0.0,0.0,90,0.00,,,0.00,HomebrewedOnLinux,2013-02-15 05:50:00,
2013-02-15 00:55:00,40.8,38.1,29.85,East,100,0.0,0.0,90,0.00,,,0.00,HomebrewedOnLinux,2013-02-15 05:55:00,
2013-02-15 01:00:00,40.6,37.9,29.85,NNE,32,0.0,0.0,90,0.00,,,0.00,HomebrewedOnLinux,2013-02-15 06:00:00,
2013-02-15 01:05:00,40.5,37.8,29.85,WNW,284,0.0,0.0,90,0.00,,,0.00,HomebrewedOnLinux,2013-02-15 06:05:00,
2013-02-15 01:10:00,40.3,37.6,29.85,West,271,0.0,0.0,90,0.00,,,0.00,HomebrewedOnLinux,2013-02-15 06:10:00,
2013-02-15 01:15:00,40.3,37.6,29.85,West,270,0.0,0.0,90,0.00,,,0.00,HomebrewedOnLinux,2013-02-15 06:15:00,
2013-02-15 01:20:00,40.3,37.6,29.85,West,270,0.0,0.0,90,0.00,,,0.00,HomebrewedOnLinux,2013-02-15 06:20:00,
2013-02-15 01:25:00,40.1,37.4,29.85,NNW,339,0.0,0.0,90,0.00,,,0.00,HomebrewedOnLinux,2013-02-15 06:25:00,
2013-02-15 01:30:00,40.1,37.4,29.85,NNW,342,0.0,0.0,90,0.00,,,0.00,HomebrewedOnLinux,2013-02-15 06:30:00,
2013-02-15 01:35:00,40.1,37.4,29.85,NW,315,0.0,0.0,90,0.00,,,0.00,HomebrewedOnLinux,2013-02-15 06:35:00,
2013-02-15 01:40:00,39.9,37.2,29.85,NW,315,0.0,0.0,90,0.00,,,0.00,HomebrewedOnLinux,2013-02-15 06:40:00,
2013-02-15 01:45:00,39.7,37.1,29.85,NW,315,0.0,0.0,90,0.00,,,0.00,HomebrewedOnLinux,2013-02-15 06:45:00,
2013-02-15 01:50:00,39.6,36.9,29.85,NW,315,0.0,0.0,90,0.00,,,0.00,HomebrewedOnLinux,2013-02-15 06:50:00,
2013-02-15 02:05:00,39.4,36.7,29.85,NW,315,0.0,0.0,90,0.00,,,0.00,HomebrewedOnLinux,2013-02-15 07:05:00,
2013-02-15 02:15:00,39.2,36.5,29.85,NW,315,0.0,0.0,90,0.00,,,0.00,HomebrewedOnLinux,2013-02-15 07:15:00,
2013-02-15 02:25:00,39.2,36.8,29.85,NW,315,0.0,0.0,91,0.00,,,0.00,HomebrewedOnLinux,2013-02-15 07:25:00,
2013-02-15 02:35:00,39.2,36.8,29.85,NW,315,0.0,0.0,91,0.00,,,0.00,HomebrewedOnLinux,2013-02-15 07:35:00,
2013-02-15 02:45:00,39.0,36.6,29.85,NW,315,0.0,0.0,91,0.00,,,0.00,HomebrewedOnLinux,2013-02-15 07:45:00,
2013-02-15 03:05:00,38.7,36.3,29.85,NW,315,0.0,0.0,91,0.00,,,0.00,HomebrewedOnLinux,2013-02-15 08:05:00,
2013-02-15 03:15:00,38.5,36.1,29.85,NNE,22,0.0,0.0,91,0.00,,,0.00,HomebrewedOnLinux,2013-02-15 08:15:00,
2013-02-15 03:25:00,38.5,36.1,29.85,NNE,22,0.0,0.0,91,0.00,,,0.00,HomebrewedOnLinux,2013-02-15 08:25:00,
2013-02-15 03:35:00,38.5,36.1,29.85,North,1,0.0,0.0,91,0.00,,,0.00,HomebrewedOnLinux,2013-02-15 08:35:00,
2013-02-15 03:40:00,38.1,35.7,29.85,WNW,293,0.0,0.0,91,0.00,,,0.00,HomebrewedOnLinux,2013-02-15 08:40:00,
2013-02-15 03:50:00,38.1,35.7,29.85,NW,324,0.0,0.0,91,0.00,,,0.00,HomebrewedOnLinux,2013-02-15 08:50:00,
2013-02-15 03:55:00,38.1,35.7,29.85,NNE,22,0.0,0.0,91,0.00,,,0.00,HomebrewedOnLinux,2013-02-15 08:55:00,
2013-02-15 04:00:00,37.9,35.6,29.85,North,8,0.0,0.0,91,0.00,,,0.00,HomebrewedOnLinux,2013-02-15 09:00:00,
2013-02-15 04:05:00,37.9,35.6,29.85,North,0,0.0,0.0,91,0.00,,,0.00,HomebrewedOnLinux,2013-02-15 09:05:00,
2013-02-15 04:15:00,37.8,35.4,29.85,SW,228,0.0,0.0,91,0.00,,,0.00,HomebrewedOnLinux,2013-02-15 09:15:00,
2013-02-15 04:20:00,37.8,35.4,29.85,WSW,257,0.0,0.0,91,0.00,,,0.00,HomebrewedOnLinux,2013-02-15 09:20:00,
2013-02-15 04:25:00,37.6,35.2,29.85,West,270,0.0,0.0,91,0.00,,,0.00,HomebrewedOnLinux,2013-02-15 09:25:00,
2013-02-15 04:30:00,37.6,35.2,29.85,West,270,0.0,0.0,91,0.00,,,0.00,HomebrewedOnLinux,2013-02-15 09:30:00,
2013-02-15 04:35:00,37.4,35.0,29.85,West,270,0.0,0.0,91,0.00,,,0.00,HomebrewedOnLinux,2013-02-15 09:35:00,
2013-02-15 04:45:00,37.4,35.1,29.85,West,276,0.0,0.0,91,0.00,,,0.00,HomebrewedOnLinux,2013-02-15 09:45:00,
2013-02-15 04:50:00,37.2,35.0,29.85,NNE,22,0.0,0.0,92,0.00,,,0.00,HomebrewedOnLinux,2013-02-15 09:50:00,
2013-02-15 05:00:00,37.2,35.1,29.85,NNE,22,0.0,0.0,92,0.00,,,0.00,HomebrewedOnLinux,2013-02-15 10:00:00,
2013-02-15 05:05:00,37.2,35.1,29.85,North,0,0.0,0.0,92,0.00,,,0.00,HomebrewedOnLinux,2013-02-15 10:05:00,
2013-02-15 05:20:00,36.9,34.8,29.85,NW,315,0.0,0.0,92,0.00,,,0.00,HomebrewedOnLinux,2013-02-15 10:20:00,
2013-02-15 05:25:00,36.7,34.6,29.85,NW,315,0.0,0.0,92,0.00,,,0.00,HomebrewedOnLinux,2013-02-15 10:25:00,
2013-02-15 05:35:00,36.7,34.6,29.85,NW,315,0.0,0.0,92,0.00,,,0.00,HomebrewedOnLinux,2013-02-15 10:35:00,
2013-02-15 05:45:00,36.9,34.8,29.88,NW,315,0.0,0.0,92,0.00,,,0.00,HomebrewedOnLinux,2013-02-15 10:45:00,
2013-02-15 05:55:00,36.7,34.6,29.88,NW,315,0.0,0.0,92,0.00,,,0.00,HomebrewedOnLinux,2013-02-15 10:55:00,
2013-02-15 06:05:00,36.5,34.4,29.88,NW,315,0.0,0.0,92,0.00,,,0.00,HomebrewedOnLinux,2013-02-15 11:05:00,
2013-02-15 06:35:00,36.0,33.9,29.91,NW,315,0.0,0.0,92,0.00,,,0.00,HomebrewedOnLinux,2013-02-15 11:35:00,
2013-02-15 07:00:00,35.6,33.5,29.91,NW,315,0.0,0.0,92,0.00,,,0.00,HomebrewedOnLinux,2013-02-15 12:00:00,
2013-02-15 07:35:00,35.4,33.3,29.91,NW,315,0.0,0.0,92,0.00,,,0.00,HomebrewedOnLinux,2013-02-15 12:35:00,
2013-02-15 07:40:00,35.6,33.6,29.91,NW,315,0.0,0.0,92,0.00,,,0.00,HomebrewedOnLinux,2013-02-15 12:40:00,
2013-02-15 07:45:00,35.6,33.5,29.91,North,5,0.0,0.0,92,0.00,,,0.00,HomebrewedOnLinux,2013-02-15 12:45:00,
2013-02-15 07:50:00,35.6,33.5,29.91,NNE,22,0.0,0.0,92,0.00,,,0.00,HomebrewedOnLinux,2013-02-15 12:50:00,
2013-02-15 07:55:00,35.8,34.0,29.91,NW,322,0.0,0.0,93,0.00,,,0.00,HomebrewedOnLinux,2013-02-15 12:55:00,
2013-02-15 08:05:00,36.0,34.1,29.91,NW,315,0.0,0.0,93,0.00,,,0.00,HomebrewedOnLinux,2013-02-15 13:05:00,
2013-02-15 08:10:00,36.1,34.3,29.91,NW,315,0.0,0.0,93,0.00,,,0.00,HomebrewedOnLinux,2013-02-15 13:10:00,
2013-02-15 08:15:00,36.3,34.5,29.88,NW,324,0.0,0.0,93,0.00,,,0.00,HomebrewedOnLinux,2013-02-15 13:15:00,
2013-02-15 08:20:00,36.5,34.8,29.88,North,0,0.0,0.0,93,0.00,,,0.00,HomebrewedOnLinux,2013-02-15 13:20:00,
2013-02-15 08:25:00,36.9,35.3,29.88,North,0,0.0,0.0,94,0.00,,,0.00,HomebrewedOnLinux,2013-02-15 13:25:00,
2013-02-15 08:30:00,37.0,35.5,29.88,North,0,0.0,0.0,94,0.00,,,0.00,HomebrewedOnLinux,2013-02-15 13:30:00,
2013-02-15 08:40:00,37.8,36.3,29.91,NE,44,0.0,0.0,94,0.00,,,0.00,HomebrewedOnLinux,2013-02-15 13:40:00,
2013-02-15 08:45:00,38.1,36.7,29.88,East,90,0.0,0.0,95,0.00,,,0.00,HomebrewedOnLinux,2013-02-15 13:45:00,
2013-02-15 08:50:00,38.5,37.2,29.88,East,90,0.0,0.0,95,0.00,,,0.00,HomebrewedOnLinux,2013-02-15 13:50:00,
2013-02-15 08:55:00,39.0,37.7,29.88,East,90,0.0,0.0,95,0.00,,,0.00,HomebrewedOnLinux,2013-02-15 13:55:00,
2013-02-15 09:00:00,39.4,37.9,29.88,East,90,0.0,0.0,94,0.00,,,0.00,HomebrewedOnLinux,2013-02-15 14:00:00,
2013-02-15 09:05:00,39.9,38.6,29.91,East,90,0.0,0.0,95,0.00,,,0.00,HomebrewedOnLinux,2013-02-15 14:05:00,
2013-02-15 09:10:00,40.5,39.1,29.91,East,90,0.0,0.0,95,0.00,,,0.00,HomebrewedOnLinux,2013-02-15 14:10:00,
2013-02-15 09:15:00,41.0,39.7,29.91,East,90,0.0,0.0,95,0.00,,,0.00,HomebrewedOnLinux,2013-02-15 14:15:00,
2013-02-15 09:20:00,41.5,40.2,29.91,East,90,0.0,0.0,95,0.00,,,0.00,HomebrewedOnLinux,2013-02-15 14:20:00,
2013-02-15 09:25:00,42.3,40.8,29.91,ESE,110,0.0,0.0,94,0.00,,,0.00,HomebrewedOnLinux,2013-02-15 14:25:00,
2013-02-15 09:30:00,43.0,41.4,29.91,ESE,113,1.0,2.0,94,0.00,,,0.00,HomebrewedOnLinux,2013-02-15 14:30:00,
2013-02-15 09:35:00,44.1,42.3,29.91,ESE,109,2.0,2.0,94,0.00,,,0.00,HomebrewedOnLinux,2013-02-15 14:35:00,
2013-02-15 09:40:00,44.8,42.7,29.91,ESE,107,2.0,2.0,92,0.00,,,0.00,HomebrewedOnLinux,2013-02-15 14:40:00,
2013-02-15 09:50:00,46.4,43.3,29.91,SE,133,1.0,2.0,89,0.00,,,0.00,HomebrewedOnLinux,2013-02-15 14:50:00,
2013-02-15 09:55:00,46.9,43.3,29.91,ENE,72,1.0,1.0,87,0.00,,,0.00,HomebrewedOnLinux,2013-02-15 14:55:00,
2013-02-15 10:05:00,48.2,43.7,29.91,ENE,75,1.0,2.0,84,0.00,,,0.00,HomebrewedOnLinux,2013-02-15 15:05:00,
2013-02-15 10:10:00,48.7,44.1,29.91,ESE,109,2.0,3.0,84,0.00,,,0.00,HomebrewedOnLinux,2013-02-15 15:10:00,
2013-02-15 10:15:00,49.6,44.7,29.91,ESE,109,1.0,2.0,83,0.00,,,0.00,HomebrewedOnLinux,2013-02-15 15:15:00,
2013-02-15 10:20:00,50.4,45.0,29.91,SE,137,2.0,3.0,82,0.00,,,0.00,HomebrewedOnLinux,2013-02-15 15:20:00,
2013-02-15 10:25:00,51.3,45.6,29.91,SW,225,2.0,3.0,81,0.00,,,0.00,HomebrewedOnLinux,2013-02-15 15:25:00,
2013-02-15 10:30:00,52.0,46.1,29.88,ENE,61,1.0,2.0,80,0.00,,,0.00,HomebrewedOnLinux,2013-02-15 15:30:00,
2013-02-15 10:40:00,52.9,45.9,29.88,ENE,76,1.0,3.0,77,0.00,,,0.00,HomebrewedOnLinux,2013-02-15 15:40:00,
2013-02-15 10:45:00,53.2,46.0,29.88,NE,54,1.0,2.0,76,0.00,,,0.00,HomebrewedOnLinux,2013-02-15 15:45:00,
2013-02-15 10:50:00,53.8,46.0,29.91,ESE,112,2.0,2.0,75,0.00,,,0.00,HomebrewedOnLinux,2013-02-15 15:50:00,
2013-02-15 10:55:00,54.5,46.4,29.91,SE,124,2.0,4.0,74,0.00,,,0.00,HomebrewedOnLinux,2013-02-15 15:55:00,
2013-02-15 11:00:00,55.0,46.1,29.91,SE,125,2.0,2.0,72,0.00,,,0.00,HomebrewedOnLinux,2013-02-15 16:00:00,
2013-02-15 11:05:00,55.4,46.2,29.91,South,181,1.0,2.0,71,0.00,,,0.00,HomebrewedOnLinux,2013-02-15 16:05:00,
2013-02-15 11:10:00,56.3,47.2,29.91,SSE,163,1.0,2.0,71,0.00,,,0.00,HomebrewedOnLinux,2013-02-15 16:10:00,
2013-02-15 11:15:00,56.7,46.8,29.91,West,270,2.0,3.0,70,0.00,,,0.00,HomebrewedOnLinux,2013-02-15 16:15:00,
2013-02-15 11:20:00,56.8,46.5,29.91,South,171,2.0,2.0,68,0.00,,,0.00,HomebrewedOnLinux,2013-02-15 16:20:00,
2013-02-15 11:25:00,57.4,46.5,29.91,ESE,116,2.0,3.0,67,0.00,,,0.00,HomebrewedOnLinux,2013-02-15 16:25:00,
2013-02-15 11:30:00,57.7,46.6,29.91,SE,129,1.0,3.0,66,0.00,,,0.00,HomebrewedOnLinux,2013-02-15 16:30:00,
2013-02-15 11:35:00,58.1,46.7,29.91,ENE,66,2.0,2.0,66,0.00,,,0.00,HomebrewedOnLinux,2013-02-15 16:35:00,
2013-02-15 11:40:00,58.8,47.0,29.91,East,101,2.0,3.0,65,0.00,,,0.00,HomebrewedOnLinux,2013-02-15 16:40:00,
2013-02-15 11:45:00,59.2,46.5,29.91,ENE,74,2.0,4.0,63,0.00,,,0.00,HomebrewedOnLinux,2013-02-15 16:45:00,
2013-02-15 11:50:00,59.5,46.6,29.91,SE,141,2.0,3.0,62,0.00,,,0.00,HomebrewedOnLinux,2013-02-15 16:50:00,
2013-02-15 11:55:00,60.3,47.2,29.91,NE,53,1.0,2.0,62,0.00,,,0.00,HomebrewedOnLinux,2013-02-15 16:55:00,
2013-02-15 12:00:00,60.4,46.6,29.88,SE,129,2.0,3.0,60,0.00,,,0.00,HomebrewedOnLinux,2013-02-15 17:00:00,
2013-02-15 12:05:00,60.6,46.8,29.88,SW,216,2.0,5.0,60,0.00,,,0.00,HomebrewedOnLinux,2013-02-15 17:05:00,
2013-02-15 12:10:00,61.0,46.4,29.88,NW,310,0.0,2.0,59,0.00,,,0.00,HomebrewedOnLinux,2013-02-15 17:10:00,
2013-02-15 12:15:00,61.2,46.4,29.88,West,271,2.0,4.0,58,0.00,,,0.00,HomebrewedOnLinux,2013-02-15 17:15:00,
2013-02-15 12:20:00,62.1,46.6,29.85,West,273,2.0,5.0,57,0.00,,,0.00,HomebrewedOnLinux,2013-02-15 17:20:00,
2013-02-15 12:25:00,62.2,46.6,29.85,WSW,247,2.0,5.0,57,0.00,,,0.00,HomebrewedOnLinux,2013-02-15 17:25:00,
2013-02-15 12:30:00,62.2,47.0,29.85,East,81,2.0,3.0,58,0.00,,,0.00,HomebrewedOnLinux,2013-02-15 17:30:00,
2013-02-15 12:35:00,62.1,46.0,29.85,SE,125,2.0,4.0,56,0.00,,,0.00,HomebrewedOnLinux,2013-02-15 17:35:00,
2013-02-15 12:40:00,62.2,46.6,29.85,SSW,202,2.0,4.0,57,0.00,,,0.00,HomebrewedOnLinux,2013-02-15 17:40:00,
2013-02-15 12:45:00,62.1,45.9,29.82,SW,228,1.0,3.0,55,0.00,,,0.00,HomebrewedOnLinux,2013-02-15 17:45:00,
2013-02-15 12:50:00,61.9,44.3,29.82,West,279,1.0,3.0,52,0.00,,,0.00,HomebrewedOnLinux,2013-02-15 17:50:00,
2013-02-15 12:55:00,61.7,43.5,29.82,West,270,2.0,4.0,51,0.00,,,0.00,HomebrewedOnLinux,2013-02-15 17:55:00,
2013-02-15 13:00:00,61.9,44.1,29.82,WNW,303,2.0,6.0,52,0.00,,,0.00,HomebrewedOnLinux,2013-02-15 18:00:00,
2013-02-15 13:05:00,62.4,43.9,29.85,West,259,2.0,4.0,51,0.00,,,0.00,HomebrewedOnLinux,2013-02-15 18:05:00,
2013-02-15 13:10:00,63.0,43.6,29.85,WSW,251,2.0,4.0,49,0.00,,,0.00,HomebrewedOnLinux,2013-02-15 18:10:00,
2013-02-15 13:15:00,63.3,43.7,29.85,SW,233,2.0,4.0,49,0.00,,,0.00,HomebrewedOnLinux,2013-02-15 18:15:00,
2013-02-15 13:20:00,63.3,43.8,29.85,SE,142,2.0,4.0,49,0.00,,,0.00,HomebrewedOnLinux,2013-02-15 18:20:00,
2013-02-15 13:25:00,63.3,43.3,29.85,East,92,2.0,3.0,48,0.00,,,0.00,HomebrewedOnLinux,2013-02-15 18:25:00,
2013-02-15 13:30:00,63.3,43.3,29.82,NNW,327,2.0,3.0,48,0.00,,,0.00,HomebrewedOnLinux,2013-02-15 18:30:00,
2013-02-15 13:35:00,63.1,43.2,29.82,South,190,2.0,4.0,48,0.00,,,0.00,HomebrewedOnLinux,2013-02-15 18:35:00,
2013-02-15 13:40:00,63.1,42.9,29.82,SW,227,2.0,4.0,48,0.00,,,0.00,HomebrewedOnLinux,2013-02-15 18:40:00,
2013-02-15 13:45:00,63.1,42.9,29.82,SW,228,3.0,4.0,48,0.00,,,0.00,HomebrewedOnLinux,2013-02-15 18:45:00,
2013-02-15 13:50:00,62.8,42.5,29.82,NW,308,1.0,3.0,47,0.00,,,0.00,HomebrewedOnLinux,2013-02-15 18:50:00,
2013-02-15 14:00:00,62.1,42.0,29.82,SE,145,1.0,2.0,48,0.00,,,0.00,HomebrewedOnLinux,2013-02-15 19:00:00,
2013-02-15 14:05:00,62.1,42.0,29.79,NNE,21,2.0,3.0,48,0.00,,,0.00,HomebrewedOnLinux,2013-02-15 19:05:00,
2013-02-15 14:10:00,62.2,41.8,29.79,NNW,342,1.0,2.0,47,0.00,,,0.00,HomebrewedOnLinux,2013-02-15 19:10:00,
2013-02-15 14:15:00,62.6,41.3,29.79,WNW,298,1.0,4.0,46,0.00,,,0.00,HomebrewedOnLinux,2013-02-15 19:15:00,
2013-02-15 14:20:00,62.8,42.0,29.79,South,178,2.0,3.0,46,0.00,,,0.00,HomebrewedOnLinux,2013-02-15 19:20:00,
2013-02-15 14:25:00,63.0,41.9,29.79,WSW,243,2.0,4.0,46,0.00,,,0.00,HomebrewedOnLinux,2013-02-15 19:25:00,
2013-02-15 14:30:00,63.5,42.3,29.77,SW,234,3.0,4.0,46,0.00,,,0.00,HomebrewedOnLinux,2013-02-15 19:30:00,
2013-02-15 14:35:00,63.7,42.4,29.77,SSW,194,2.0,5.0,46,0.00,,,0.00,HomebrewedOnLinux,2013-02-15 19:35:00,
2013-02-15 14:40:00,63.7,42.5,29.77,SW,230,3.0,4.0,46,0.00,,,0.00,HomebrewedOnLinux,2013-02-15 19:40:00,
2013-02-15 14:45:00,63.7,42.3,29.77,West,263,3.0,4.0,46,0.00,,,0.00,HomebrewedOnLinux,2013-02-15 19:45:00,
2013-02-15 14:50:00,63.5,42.3,29.79,West,263,2.0,3.0,46,0.00,,,0.00,HomebrewedOnLinux,2013-02-15 19:50:00,
2013-02-15 14:55:00,63.3,41.6,29.79,NNE,15,1.0,2.0,45,0.00,,,0.00,HomebrewedOnLinux,2013-02-15 19:55:00,
2013-02-15 15:00:00,63.1,41.1,29.79,NNW,341,2.0,3.0,44,0.00,,,0.00,HomebrewedOnLinux,2013-02-15 20:00:00,
2013-02-15 15:05:00,63.1,41.3,29.79,ESE,105,3.0,5.0,45,0.00,,,0.00,HomebrewedOnLinux,2013-02-15 20:05:00,
2013-02-15 15:10:00,63.0,41.2,29.79,ENE,64,1.0,3.0,45,0.00,,,0.00,HomebrewedOnLinux,2013-02-15 20:10:00,
2013-02-15 15:15:00,63.0,40.9,29.77,WNW,294,1.0,2.0,44,0.00,,,0.00,HomebrewedOnLinux,2013-02-15 20:15:00,
2013-02-15 15:20:00,63.0,40.8,29.77,NW,316,1.0,3.0,44,0.00,,,0.00,HomebrewedOnLinux,2013-02-15 20:20:00,
2013-02-15 15:25:00,63.1,40.7,29.77,ENE,65,2.0,3.0,44,0.00,,,0.00,HomebrewedOnLinux,2013-02-15 20:25:00,
2013-02-15 15:30:00,63.3,40.9,29.77,ENE,57,2.0,3.0,44,0.00,,,0.00,HomebrewedOnLinux,2013-02-15 20:30:00,
2013-02-15 15:35:00,63.5,40.1,29.77,North,356,1.0,3.0,42,0.00,,,0.00,HomebrewedOnLinux,2013-02-15 20:35:00,
2013-02-15 15:40:00,63.5,40.4,29.77,NE,38,2.0,4.0,43,0.00,,,0.00,HomebrewedOnLinux,2013-02-15 20:40:00,
2013-02-15 15:45:00,63.9,40.9,29.77,NE,39,2.0,3.0,43,0.00,,,0.00,HomebrewedOnLinux,2013-02-15 20:45:00,
2013-02-15 15:50:00,64.0,41.1,29.77,NE,55,3.0,4.0,43,0.00,,,0.00,HomebrewedOnLinux,2013-02-15 20:50:00,
2013-02-15 15:55:00,64.0,40.8,29.77,ENE,68,2.0,3.0,43,0.00,,,0.00,HomebrewedOnLinux,2013-02-15 20:55:00,
2013-02-15 16:00:00,64.0,40.4,29.77,ENE,68,0.0,2.0,42,0.00,,,0.00,HomebrewedOnLinux,2013-02-15 21:00:00,
2013-02-15 16:05:00,63.9,40.6,29.74,ENE,61,1.0,3.0,42,0.00,,,0.00,HomebrewedOnLinux,2013-02-15 21:05:00,
2013-02-15 16:10:00,63.9,41.0,29.74,NNE,23,0.0,2.0,43,0.00,,,0.00,HomebrewedOnLinux,2013-02-15 21:10:00,
2013-02-15 16:15:00,63.5,41.1,29.74,NNW,336,1.0,3.0,44,0.00,,,0.00,HomebrewedOnLinux,2013-02-15 21:15:00,
2013-02-15 16:20:00,63.0,40.6,29.74,NNW,330,0.0,0.0,44,0.00,,,0.00,HomebrewedOnLinux,2013-02-15 21:20:00,
2013-02-15 16:25:00,62.8,40.1,29.74,NW,317,0.0,2.0,43,0.00,,,0.00,HomebrewedOnLinux,2013-02-15 21:25:00,
2013-02-15 16:30:00,62.8,39.8,29.74,ENE,73,1.0,3.0,43,0.00,,,0.00,HomebrewedOnLinux,2013-02-15 21:30:00,
2013-02-15 16:35:00,62.8,38.9,29.74,NE,42,2.0,3.0,41,0.00,,,0.00,HomebrewedOnLinux,2013-02-15 21:35:00,
2013-02-15 16:40:00,62.8,40.0,29.74,NE,47,1.0,2.0,43,0.00,,,0.00,HomebrewedOnLinux,2013-02-15 21:40:00,
2013-02-15 16:45:00,62.6,39.8,29.74,NE,35,1.0,3.0,43,0.00,,,0.00,HomebrewedOnLinux,2013-02-15 21:45:00,
2013-02-15 16:50:00,62.4,40.7,29.74,SSE,159,2.0,4.0,45,0.00,,,0.00,HomebrewedOnLinux,2013-02-15 21:50:00,
2013-02-15 16:55:00,62.2,40.4,29.74,NNW,341,0.0,2.0,45,0.00,,,0.00,HomebrewedOnLinux,2013-02-15 21:55:00,
2013-02-15 17:00:00,62.1,40.4,29.74,ENE,57,2.0,2.0,45,0.00,,,0.00,HomebrewedOnLinux,2013-02-15 22:00:00,
2013-02-15 17:05:00,61.7,40.1,29.74,East,90,1.0,3.0,45,0.00,,,0.00,HomebrewedOnLinux,2013-02-15 22:05:00,
2013-02-15 17:10:00,61.2,40.0,29.74,ENE,68,2.0,3.0,46,0.00,,,0.00,HomebrewedOnLinux,2013-02-15 22:10:00,
2013-02-15 17:15:00,61.0,39.7,29.74,North,7,0.0,2.0,45,0.00,,,0.00,HomebrewedOnLinux,2013-02-15 22:15:00,
2013-02-15 17:20:00,60.6,39.5,29.74,North,357,0.0,1.0,46,0.00,,,0.00,HomebrewedOnLinux,2013-02-15 22:20:00,
2013-02-15 17:25:00,60.3,39.3,29.74,NE,43,2.0,3.0,46,0.00,,,0.00,HomebrewedOnLinux,2013-02-15 22:25:00,
2013-02-15 17:30:00,60.1,39.2,29.74,NNE,29,1.0,2.0,46,0.00,,,0.00,HomebrewedOnLinux,2013-02-15 22:30:00,
2013-02-15 17:35:00,59.7,39.1,29.74,NNE,18,0.0,0.0,46,0.00,,,0.00,HomebrewedOnLinux,2013-02-15 22:35:00,
2013-02-15 17:40:00,59.2,39.5,29.74,West,271,0.0,0.0,48,0.00,,,0.00,HomebrewedOnLinux,2013-02-15 22:40:00,
2013-02-15 17:45:00,58.8,39.7,29.74,West,270,0.0,0.0,49,0.00,,,0.00,HomebrewedOnLinux,2013-02-15 22:45:00,
2013-02-15 17:50:00,58.3,39.4,29.74,West,270,0.0,2.0,49,0.00,,,0.00,HomebrewedOnLinux,2013-02-15 22:50:00,
2013-02-15 18:00:00,57.6,39.7,29.74,NNW,338,0.0,0.0,51,0.00,,,0.00,HomebrewedOnLinux,2013-02-15 23:00:00,
2013-02-15 18:05:00,57.2,39.7,29.74,NNW,338,0.0,0.0,52,0.00,,,0.00,HomebrewedOnLinux,2013-02-15 23:05:00,
2013-02-15 18:10:00,56.8,39.7,29.74,NNW,338,0.0,0.0,53,0.00,,,0.00,HomebrewedOnLinux,2013-02-15 23:10:00,
2013-02-15 18:20:00,56.3,39.4,29.74,NNW,338,0.0,0.0,53,0.00,,,0.00,HomebrewedOnLinux,2013-02-15 23:20:00,
2013-02-15 18:25:00,55.9,39.6,29.74,NNW,338,0.0,0.0,54,0.00,,,0.00,HomebrewedOnLinux,2013-02-15 23:25:00,
2013-02-15 18:35:00,55.2,39.2,29.77,NNW,338,0.0,0.0,55,0.00,,,0.00,HomebrewedOnLinux,2013-02-15 23:35:00,
2013-02-15 18:40:00,54.9,38.9,29.77,NNW,338,0.0,0.0,55,0.00,,,0.00,HomebrewedOnLinux,2013-02-15 23:40:00,
2013-02-15 18:45:00,54.5,38.3,29.77,NNW,338,0.0,0.0,54,0.00,,,0.00,HomebrewedOnLinux,2013-02-15 23:45:00,
2013-02-15 18:50:00,54.3,38.2,29.74,NNW,338,0.0,0.0,54,0.00,,,0.00,HomebrewedOnLinux,2013-02-15 23:50:00,
2013-02-15 18:55:00,54.0,38.3,29.74,NNW,338,0.0,0.0,55,0.00,,,0.00,HomebrewedOnLinux,2013-02-15 23:55:00,
2013-02-15 19:00:00,53.6,38.4,29.74,NNW,338,0.0,0.0,56,0.00,,,0.00,HomebrewedOnLinux,2013-02-16 00:00:00,
2013-02-15 19:05:00,53.4,38.8,29.74,NNW,338,0.0,0.0,57,0.00,,,0.00,HomebrewedOnLinux,2013-02-16 00:05:00,
2013-02-15 19:10:00,53.1,38.5,29.74,NNW,338,0.0,0.0,58,0.00,,,0.00,HomebrewedOnLinux,2013-02-16 00:10:00,
2013-02-15 19:15:00,52.9,38.6,29.74,NNW,338,0.0,0.0,58,0.00,,,0.00,HomebrewedOnLinux,2013-02-16 00:15:00,
2013-02-15 19:20:00,52.5,38.6,29.74,NNW,338,0.0,0.0,59,0.00,,,0.00,HomebrewedOnLinux,2013-02-16 00:20:00,
2013-02-15 19:25:00,52.3,38.3,29.74,NNW,338,0.0,0.0,59,0.00,,,0.00,HomebrewedOnLinux,2013-02-16 00:25:00,
2013-02-15 19:30:00,52.0,37.9,29.77,NNW,338,0.0,2.0,59,0.00,,,0.00,HomebrewedOnLinux,2013-02-16 00:30:00,
2013-02-15 19:35:00,51.8,38.1,29.77,NW,315,0.0,2.0,59,0.00,,,0.00,HomebrewedOnLinux,2013-02-16 00:35:00,
2013-02-15 19:40:00,51.6,38.2,29.77,NW,315,0.0,2.0,60,0.00,,,0.00,HomebrewedOnLinux,2013-02-16 00:40:00,
2013-02-15 19:45:00,51.4,38.0,29.77,NW,315,1.0,2.0,60,0.00,,,0.00,HomebrewedOnLinux,2013-02-16 00:45:00,
2013-02-15 19:50:00,51.1,37.9,29.77,NW,315,1.0,2.0,61,0.00,,,0.00,HomebrewedOnLinux,2013-02-16 00:50:00,
2013-02-15 19:55:00,50.9,38.1,29.77,NW,315,0.0,0.0,62,0.00,,,0.00,HomebrewedOnLinux,2013-02-16 00:55:00,
2013-02-15 20:05:00,50.5,38.0,29.74,NW,315,0.0,0.0,62,0.00,,,0.00,HomebrewedOnLinux,2013-02-16 01:05:00,
2013-02-15 20:10:00,50.5,38.3,29.74,NW,315,0.0,0.0,63,0.00,,,0.00,HomebrewedOnLinux,2013-02-16 01:10:00,
2013-02-15 20:15:00,50.2,38.1,29.74,NW,315,0.0,0.0,63,0.00,,,0.00,HomebrewedOnLinux,2013-02-16 01:15:00,
2013-02-15 20:20:00,50.2,38.1,29.74,NW,315,0.0,0.0,63,0.00,,,0.00,HomebrewedOnLinux,2013-02-16 01:20:00,
2013-02-15 20:25:00,50.0,38.0,29.74,NW,315,0.0,0.0,63,0.00,,,0.00,HomebrewedOnLinux,2013-02-16 01:25:00,
2013-02-15 20:30:00,49.6,38.4,29.74,NW,315,0.0,0.0,65,0.00,,,0.00,HomebrewedOnLinux,2013-02-16 01:30:00,
2013-02-15 20:35:00,49.5,38.3,29.74,NW,315,0.0,0.0,65,0.00,,,0.00,HomebrewedOnLinux,2013-02-16 01:35:00,
2013-02-15 20:40:00,49.5,38.3,29.74,NW,315,0.0,0.0,65,0.00,,,0.00,HomebrewedOnLinux,2013-02-16 01:40:00,
2013-02-15 20:50:00,48.9,37.9,29.74,NW,315,0.0,0.0,66,0.00,,,0.00,HomebrewedOnLinux,2013-02-16 01:50:00,
2013-02-15 20:55:00,48.9,38.3,29.74,NW,315,0.0,0.0,66,0.00,,,0.00,HomebrewedOnLinux,2013-02-16 01:55:00,
2013-02-15 21:05:00,48.7,38.3,29.74,NW,315,0.0,0.0,67,0.00,,,0.00,HomebrewedOnLinux,2013-02-16 02:05:00,
2013-02-15 21:10:00,48.6,38.2,29.74,NW,315,0.0,0.0,67,0.00,,,0.00,HomebrewedOnLinux,2013-02-16 02:10:00,
2013-02-15 21:15:00,48.6,38.5,29.71,NW,315,0.0,0.0,68,0.00,,,0.00,HomebrewedOnLinux,2013-02-16 02:15:00,
2013-02-15 21:20:00,48.4,38.3,29.71,NW,315,0.0,0.0,68,0.00,,,0.00,HomebrewedOnLinux,2013-02-16 02:20:00,
2013-02-15 21:25:00,48.2,38.1,29.71,NW,315,0.0,0.0,68,0.00,,,0.00,HomebrewedOnLinux,2013-02-16 02:25:00,
2013-02-15 21:35:00,47.8,38.2,29.74,NW,315,0.0,0.0,69,0.00,,,0.00,HomebrewedOnLinux,2013-02-16 02:35:00,
2013-02-15 21:40:00,47.7,38.0,29.74,NW,315,0.0,0.0,69,0.00,,,0.00,HomebrewedOnLinux,2013-02-16 02:40:00,
2013-02-15 21:45:00,47.5,37.8,29.74,NW,315,0.0,0.0,69,0.00,,,0.00,HomebrewedOnLinux,2013-02-16 02:45:00,
2013-02-15 21:50:00,47.5,37.8,29.74,NW,315,0.0,0.0,69,0.00,,,0.00,HomebrewedOnLinux,2013-02-16 02:50:00,
2013-02-15 21:55:00,47.3,37.7,29.74,NW,315,0.0,0.0,69,0.00,,,0.00,HomebrewedOnLinux,2013-02-16 02:55:00,
2013-02-15 22:05:00,46.9,37.4,29.74,NW,315,0.0,0.0,69,0.00,,,0.00,HomebrewedOnLinux,2013-02-16 03:05:00,
2013-02-15 22:15:00,46.8,37.5,29.74,NW,315,0.0,0.0,70,0.00,,,0.00,HomebrewedOnLinux,2013-02-16 03:15:00,
2013-02-15 22:20:00,46.8,37.6,29.74,NW,315,0.0,0.0,70,0.00,,,0.00,HomebrewedOnLinux,2013-02-16 03:20:00,
2013-02-15 22:25:00,46.6,37.7,29.74,NW,315,0.0,0.0,71,0.00,,,0.00,HomebrewedOnLinux,2013-02-16 03:25:00,
2013-02-15 22:30:00,46.4,37.5,29.74,NW,315,0.0,0.0,71,0.00,,,0.00,HomebrewedOnLinux,2013-02-16 03:30:00,
2013-02-15 22:35:00,46.2,37.6,29.74,NW,315,0.0,0.0,72,0.00,,,0.00,HomebrewedOnLinux,2013-02-16 03:35:00,
2013-02-15 22:45:00,46.0,37.5,29.74,NW,315,0.0,0.0,72,0.00,,,0.00,HomebrewedOnLinux,2013-02-16 03:45:00,
2013-02-15 22:50:00,46.0,37.5,29.74,NW,315,0.0,0.0,72,0.00,,,0.00,HomebrewedOnLinux,2013-02-16 03:50:00,
2013-02-15 22:55:00,45.9,37.4,29.74,North,-999,-999.0,-999.0,72,0.00,,,0.00,HomebrewedOnLinux,2013-02-16 03:55:00,
2013-02-15 23:00:00,45.9,37.7,29.74,North,-999,-999.0,-999.0,73,0.00,,,0.00,HomebrewedOnLinux,2013-02-16 04:00:00,
2013-02-15 23:05:00,45.7,37.5,29.74,North,-999,-999.0,-999.0,73,0.00,,,0.00,HomebrewedOnLinux,2013-02-16 04:05:00,
2013-02-15 23:10:00,45.5,37.4,29.74,NW,315,0.0,0.0,73,0.00,,,0.00,HomebrewedOnLinux,2013-02-16 04:10:00,
2013-02-15 23:15:00,45.5,37.4,29.74,NW,315,0.0,0.0,73,0.00,,,0.00,HomebrewedOnLinux,2013-02-16 04:15:00,
2013-02-15 23:20:00,45.3,37.2,29.74,North,-999,-999.0,-999.0,73,0.00,,,0.00,HomebrewedOnLinux,2013-02-16 04:20:00,
2013-02-15 23:25:00,45.3,37.5,29.74,East,101,0.0,0.0,74,0.00,,,0.00,HomebrewedOnLinux,2013-02-16 04:25:00,
2013-02-15 23:30:00,45.1,37.0,29.74,ENE,68,2.0,3.0,73,0.00,,,0.00,HomebrewedOnLinux,2013-02-16 04:30:00,
2013-02-15 23:35:00,45.0,37.1,29.74,North,-999,-999.0,-999.0,74,0.00,,,0.00,HomebrewedOnLinux,2013-02-16 04:35:00,
2013-02-15 23:40:00,44.8,37.0,29.74,North,-999,-999.0,-999.0,74,0.00,,,0.00,HomebrewedOnLinux,2013-02-16 04:40:00,
2013-02-15 23:45:00,44.8,37.3,29.74,North,-999,-999.0,-999.0,75,0.00,,,0.00,HomebrewedOnLinux,2013-02-16 04:45:00,
2013-02-15 23:50:00,44.8,37.3,29.74,NNW,338,0.0,0.0,75,0.00,,,0.00,HomebrewedOnLinux,2013-02-16 04:50:00,